User: anonymous   Login
Location: Unspecified
(0.0000°N, 0.0000°E)
Time: 06:44:41
(UTC+00:00)
Language:

STARLINK-11611 [DTC] - Orbit

View from above orbital plane
View from above orbital plane
View from above satellite
View from above satellite

Ground track
Ground track

The orbit is defined by the following mean orbital elements,

1 63138U          26145.30885329 +.00000000 +00000-0 +12890-2 0 00002
2 63138  43.0024 148.7631 0001278 239.9958 120.0783 15.70979220    02
Epoch (UTC): 25 May 2026 07:24:44
Eccentricity: 0.0001278
inclination: 43.0024°
perigee height: 355 km
apogee height: 357 km
right ascension of ascending node: 148.7631°
argument of perigee: 239.9958°
revolutions per day: 15.70979220
mean anomaly at epoch: 120.0783°

The dashed part of the orbit path shows where the satellite is in the earth's shadow,  

DLR